Simultaneous Nadir Overpasses (SNOs) Predictions

Prediction of SNOs between METOP-B and TERRA Satellite Orbit:

Table of predicted SNOs for the next 14.0 days since TLE Epoch: 3/5/2016
Index Date (METOP-B) Time (METOP-B) Lat,Lon (METOP-B) SZA (METOP-B ) Date (TERRA) Time (TERRA) Lat,Lon (TERRA) SZA (TERRA ) Distance(km) Time Diff (sec)
1 03/05/2016 15:43:23 -81.36, 171.92 90.47 03/05/2016 15:44:35 -81.35, 171.79 90.45 2.50 72
2 03/05/2016 16:34:03 81.36, -20.36 89.57 03/05/2016 16:34:01 81.35, -20.44 89.56 1.62 2
3 03/05/2016 17:24:12 -81.30, 159.40 89.04 03/05/2016 17:23:04 -81.72, 156.68 89.17 64.29 68
4 03/08/2016 11:17:43 -81.36,-121.67 91.54 03/08/2016 11:18:50 -81.36,-121.54 91.49 2.19 67
5 03/08/2016 12:08:23 81.36, 46.02 88.49 03/08/2016 12:08:16 81.37, 46.21 88.52 3.23 7
6 03/11/2016 06:52:03 -81.36, -55.30 92.62 03/11/2016 06:53:08 -81.36, -55.10 92.57 3.25 65
7 03/11/2016 07:42:42 81.36, 112.75 87.45 03/11/2016 07:42:34 81.37, 112.62 87.44 2.18 8
8 03/14/2016 02:26:22 -81.36, 11.05 93.71 03/14/2016 02:27:28 -81.35, 11.11 93.68 1.02 66
9 03/14/2016 03:17:02 81.36, 178.67 86.31 03/14/2016 03:16:54 81.35, 178.81 86.32 2.37 8
10 03/16/2016 22:00:41 -81.36, 77.77 94.76 03/16/2016 22:01:50 -81.37, 77.85 94.72 1.61 69




NCC Satellite Simultaneous Nadir Overpasses (SNOs) Prediction Service
